Flag for Spain Weather past 2 weeks in Huelva, Spain

Now
64 °F

Passing clouds.


Feels Like: 64 °F
Forecast: 53 / 82 °F
Wind: 12 mph from Northwest

Location: Rota Airport

Current Time: Mar 29, 2015 at 10:23:32 PM

Latest Report: Mar 29, 2015 at 10:00 PM


Visibility: N/A

Pressure: 30.30 "Hg

Humidity: 73%

Dew point: 55 °F

Location of HuelvaLocation

Historic Weather in Huelva — Graph

°F

Huelva temperature yesterday

Maximum temperature yesterday: 75 °F (at 1:00 PM)
Minimum temperature yesterday: 52 °F (at 5:00 AM)
Average temperature yesterday: 62 °F

Past Weeks' High & Low Weather Summary

 TemperatureHumidityPressure
High75 °F (Mar 28, 1:00 PM)100% (Mar 20, 5:00 AM)30.36 "Hg (Mar 20, 5:00 AM)
Low45 °F (Mar 15, 8:00 AM)32% (Mar 25, 3:00 PM)29.59 "Hg (Mar 24, 7:00 AM)
Average56 °F82%29.95 "Hg
* Reported Mar 14 8:00 PM — Mar 29 9:00 PM, Huelva, Weather by CustomWeather, © 2015

Note: Actual official high and low records may vary slightly from our data, if they occured in-between our weather recording intervals... More about our weather records

Advertising

Huelva weather history for previous 24 hours

 ConditionsComfort  
Time TempWeatherWind HumidityBarometerVisibility
9:00 PM
Sun, Mar 29
66 °FPassing clouds.10 mph64%30.27 "HgN/A
8:00 PM66 °FSunny.13 mph68%30.27 "Hg10 mi
7:00 PM70 °FSunny.13 mph53%30.27 "Hg10 mi
6:00 PM75 °FPassing clouds.10 mph41%30.27 "HgN/A
5:00 PM70 °FPassing clouds.10 mph60%30.27 "HgN/A
4:00 PM72 °FSunny.12 mph53%30.27 "Hg10 mi
3:00 PM72 °FPassing clouds.9 mph57%30.30 "HgN/A
2:00 PM68 °FPassing clouds.8 mph64%30.33 "HgN/A
1:00 PM66 °FPassing clouds.3 mph73%30.33 "HgN/A
12:00 PM68 °FPassing clouds.6 mph56%30.33 "HgN/A
11:00 AM63 °FPassing clouds.6 mph68%30.33 "HgN/A
10:00 AM59 °FSunny.2 mph77%30.30 "Hg10 mi
9:00 AM55 °FClear.No wind77%30.27 "Hg10 mi
8:00 AM54 °FClear.3 mph88%30.27 "Hg10 mi
7:00 AM55 °FClear.3 mph88%30.27 "Hg10 mi
6:00 AM59 °FClear.2 mph82%30.27 "Hg10 mi
5:00 AM59 °FClear.5 mph82%30.27 "Hg10 mi
4:00 AM55 °FClear.2 mph94%30.30 "Hg10 mi
3:00 AM57 °FClear.No wind88%30.30 "Hg10 mi
1:00 AM59 °FClear.3 mph88%30.30 "Hg10 mi
12:00 AM61 °FClear.1 mph83%30.30 "Hg10 mi
11:00 PM
Sat, Mar 28
61 °FClear.1 mph88%30.30 "Hg10 mi
10:00 PM63 °FClear.8 mph83%30.30 "Hg10 mi
Weather by CustomWeather, © 2015

See weather overviewHow to use our weather pages